Regional Weather Roundup
Issued by NWS

Home | Current Version | Previous Version | Text Only | Print | Product List | Glossary On
Versions: 1 2 3 4 5 6 7 8 9 10 11 12 13 14 15 16 17 18 19 20 21 22 23 24 25 26 27 28 29 30 31 32 33 34 35 36 37 38 39 40 41 42 43 44 45 46 47 48 49 50
000
ASHW40 PHFO 310943
RWRHI

WEATHER ROUNDUP FOR HAWAII
NATIONAL WEATHER SERVICE HONOLULU HI
1100 PM HST SAT JUL 30 2016

THIS IS AN AUTOMATED REPORT THAT HAS NOT BEEN QUALITY CONTROLLED.

NOTE..."FAIR" INDICATES FEW OR NO CLOUDS BELOW 12,000 FEET WITH NO
SIGNIFICANT WEATHER AND/OR OBSTRUCTIONS TO VISIBILITY.

* - THESE SITES REPORT LIMITED FIELDS

HIZ001>004-311000-
KAUAI-NIIHAU-

CITY           SKY/WX    TMP DP  RH WIND       PRES   REMARKS
LIHUE APT      MOCLDY    77  72  84 NE16      30.03S
PORT ALLEN*      N/A     77 N/A N/A E14         N/A
POIPU*           N/A     77 N/A N/A NE8G17      N/A
PRINCEVILLE*     N/A     75 N/A N/A E6G12       N/A
KOKOLE POINT*  NOT AVBL
MOLOAA DAIRY*    N/A     75  72  88 E3          N/A
WAIMEA HTS*      N/A     75  63  64 E5G17       N/A
PUU OPAE*        N/A     68  59  73 NE3G10      N/A
PUU LUA*       NOT AVBL
MAKAHA RIDGE*    N/A     68  64  88 E1G8        N/A
$$

HIZ005>011-311000-
OAHU-

CITY           SKY/WX    TMP DP  RH WIND       PRES   REMARKS
HONOLULU       PTCLDY    79  67  66 NE8       29.99S
KALAELOA       CLEAR     77  67  71 NE3       30.00S
KANEOHE MCB    MOCLDY    78  71  79 E13G21    29.98S
WHEELER FIELD  FAIR      73  69  85 CALM      30.02S
BELLOWS*         N/A    N/A N/A N/A NE14G28     N/A
KAHUKU*          N/A    N/A N/A N/A VRB1        N/A
WHEELER*         N/A    N/A N/A N/A N5          N/A
WAIANAE HARBOR   N/A    N/A N/A N/A E1          N/A
DILLINGHAM*      N/A     72  66  83 MISG        N/A
KAHUKU TRN*      N/A     84  81  89 NW3G20      N/A  HX  98
KAWAILOA*        N/A     72  66  83 E10G18      N/A
KII*             N/A     79  72  78 E14G21      N/A
MAKUA RANGE*     N/A     88  79  74 W5G14       N/A  HX 102
OAHU FOREST NW NOT AVBL
SCHOFIELD BRK*   N/A     72  68  88 MISG        N/A
SCHOFIELD S*   NOT AVBL
WAIANAE VLY*   NOT AVBL
KUAOKALA*      NOT AVBL
HONOULIUULI*   NOT AVBL
MOKUOLOE IS*   NOT AVBL
PALEHUA*         N/A     66  66 100 NE12        N/A
WAIAWA PHB*    NOT AVBL
$$

HIZ012>013-311000-
MOLOKAI-

CITY           SKY/WX    TMP DP  RH WIND       PRES   REMARKS
MOLOKAI AIRPT  CLOUDY    79  66  64 NE13G20   30.00R
KALAUPAPA      NOT AVBL
MAKAPULAPAI*     N/A     75  70  83 SE10G17     N/A
MOLOKAI 1*     NOT AVBL
PUU ALII*        N/A     61  61 100 N2G9        N/A
$$

HIZ016-311000-
KAHOOLAWE-

CITY           SKY/WX    TMP DP  RH WIND       PRES   REMARKS
KAHOOLAWE*       N/A     72 N/A N/A E1          N/A
HAKIOAWA*        N/A     72  67  86 MISG        N/A
HONOKANAIA*      N/A     79  69  70 N6G18     29.92
KANELOA*         N/A     75  72  88 E15G25    30.04R
KEALIALALO*    NOT AVBL
LUA MAKIKA*    NOT AVBL
$$

HIZ014>015-311000-
LANAI-

CITY           SKY/WX    TMP DP  RH WIND       PRES   REMARKS
LANAI CITY     FAIR      71  67  87 NE7       30.05R
LANAI 1*       NOT AVBL
$$

HIZ017>028-311000-
MAUI-

CITY           SKY/WX    TMP DP  RH WIND       PRES   REMARKS
KAHULUI        MOCLDY    77  69  76 NE14      29.98R
KAPALUA-W MAUI NOT AVBL
HANA AIRPORT     N/A     77  72  83 E3        30.02S
HANA*            N/A     77 N/A N/A E7          N/A
HALEAKALA SUMM   N/A     46  10  23 SE3G15      N/A
MAALAEA BAY*     N/A     77 N/A N/A N13G20      N/A
HALEAKALA*     NOT AVBL
KAUPO GAP*       N/A     70  63  78 N7G18       N/A
KULA 1*          N/A     51  47  87 E3          N/A
$$

HIZ023>026-311000-
BIG ISLAND OF HAWAII COAST AND LOWER SLOPES-

CITY           SKY/WX    TMP DP  RH WIND       PRES   REMARKS
KAILUA KONA    MOCLDY    81  73  76 W6        29.96R
HILO           CLOUDY    79  72  78 CALM      29.98F
HONOKAA*         N/A     72 N/A N/A VRB1        N/A
KAWAIHAE MWT*    N/A     81 N/A N/A W6          N/A
KAWAIHAE*        N/A     81 N/A N/A W2        29.96S
SOUTH POINT*     N/A     72 N/A N/A N9G15       N/A
UPOLU AIRPORT*   N/A    N/A N/A N/A E14G20      N/A
KAMUELA*       PTSUNNY   66  64  94 NE7       30.09S
HAKALAU*         N/A     48  46  93 SW5         N/A
KALOKO-HONOKO*   N/A     77  72  83 NE6       29.95S
PALI 2*          N/A     68  59  73 S8          N/A
KEALAKOMO*       N/A     81  63  54 N7G17       N/A
KAUPULEHU*       N/A     73  63  68 SW5         N/A
KAPAPALA*        N/A     66  57  71 VRB6        N/A
LOWER KAHUKU*    N/A     63  57  82 N2G8        N/A
PUHE CS*         N/A     81  70  69 W3          N/A
PUHO CS*       NOT AVBL
PTA KEAMUKU*     N/A     61  55  82 CALM        N/A
WAIKOLOA*        N/A     73  63  68 E10         N/A
$$

HIZ027>028-311000-
BIG ISLAND OF HAWAII INTERIOR AND SUMMMITS-

CITY           SKY/WX    TMP DP  RH WIND       PRES   REMARKS
BRADSHAW FIELD CLOUDY    53  45  76 NE3       30.31R
MK VISITOR CEN   N/A     52   9  17 E6          N/A
MAUNA KEA*       N/A     37   1  22 NW17        N/A  WCI  28
MAUNA LOA*       N/A     46  14  27 MISG        N/A
MAUNA LOA 1*   NOT AVBL
PTA KIPUKA*      N/A     55  55 100 SE1         N/A
PTA RANGE 17*    N/A     57  45  62 SE12G21     N/A
PTA WEST*        N/A     75  63  64 E7G28       N/A
NENE CABIN*      N/A     50  45  81 NE8G14      N/A
AHUMOA*          N/A     52  50  94 E6          N/A
PTA PORTABLE*  NOT AVBL
PUU MALI*        N/A     55  54  94 SW5         N/A
$$

HIC003-311000-
NORTHWEST ISLANDS-

CITY           SKY/WX    TMP DP  RH WIND       PRES   REMARKS
MIDWAY ISLAND  PTCLDY    79  73  83 E12       30.18R
MIDWAY NOS*      N/A     79 N/A N/A MISG      30.18R
FRENCH FRIGATE NOT AVBL
$$

PHZ110>124-180-311000-
BUOY REPORTS

STATION/POSITION TIME  TEMP    WIND        PRES    WAVE   SWELL
                       AIR SEA DIR/SP/G            HT/PER HT/DIR
                 (UTC) (F)     (DEG/KT/KT) (MB)    (FT/S) (FT/D)
BUOY 51001       NOT AVBL
BUOY 51101       0850   78 79   70/ 17/ 19 1017.4R   7/ 9   5/ 90
BUOY 51100       NOT AVBL
BUOY 51002       0850   81 82   70/ 12/ 14 1013.6R   6/ 8   7
BUOY 51003       0850   79 82   80/ 14/ 17 1014.1R   6/ 8   5/ 90
BUOY 51004       0850   80 81   70/ 14/ 16 1014.0S   6/ 8   5/ 70
BARBERS PT BUOY  NOT AVBL
WAIMEA BAY BUOY  0904      80                N/A     5/ 9   2/ 40
KAILUA BAY BUOY  0911      80                N/A     7/ 9   2/ 70
LANAI BUOY       0915      80                N/A     2/15   2/210
BARBERS PT 2     NOT AVBL
PAUWELA MAUI     0909      80                N/A     6/ 9   2/ 60
HILO             0912      81                N/A     6/ 9   2/ 60
KANEOHE BAY BUOY 0906      79                N/A     6/ 9   2/ 50
HANALEI KAUAI    NOT AVBL
KAHULUI HARBOR   0900   78 81   20/  8/ 10 1015.4R
HONOLULU HARBOR  0900   79 80   70/  2/  4 1016.1S
KILO NALU        NOT AVBL
HILO HARBOR      0900   76 80  250/  2/  3 1015.1F
MOKUOLOE         0800   79 83   50/  9/ 12 1016.0R
NAWILIWILI       0900      81                N/A
WHOTS BUOY       NOT AVBL
BUOY 51028       NOT AVBL
$$

......................KEY........................................
  SKY/WX - SKY CONDITIONS/PRESENT WEATHER
  TMP    - TEMPERATURE IN FAHRENHEIT
  DWPT   - DEWPOINT IN FAHRENHEIT
  RH     - RELATIVE HUMIDITY IN PERCENT
  WIND   - DIRECTION AND SPEED /MPH FOR ISLANDS...KTS FOR BUOYS/
  PRES   - MEAN SEA LEVEL PRESSURE IN INCHES OF HG
  VSB    - VISIBILITY IN MILES
  HX     - HEAT INDEX
  WCI    - WIND CHILL INDEX
  VRB    - VARIABLE WIND DIRECTION
  N/A    - NOT AVAILABLE




USA.gov is the U.S. government's official web portal to all federal, state and local government web resources and services.